Ft Pierce, FL

1:48 AM EDT on July 22, 2017 (GMT -0400)
Saint Lucie County International

Weather History for KFPR - November, 2012

Change the Weather History Date:

Thursday, November 22, 2012

  Actual Average Record
Temperature  
Mean Temperature 63 °F -  
Max Temperature 71 °F 77 °F 87 °F (1985)
Min Temperature 55 °F 57 °F 35 °F (2006)
Degree Days  
Heating Degree Days 2    
Growing Degree Days 13 (Base 50)    
Moisture  
Dew Point 49 °F    
Average Humidity 65    
Maximum Humidity 80    
Minimum Humidity 47    
Precipitation  
Precipitation 0.00 in - - ()
Sea Level Pressure  
Sea Level Pressure 30.08 in    
Wind  
Wind Speed 10 mph (NNW)    
Max Wind Speed 16 mph    
Max Gust Speed 26 mph    
Visibility 10 miles    
Events      
Averages and records for this station are not official NWS values.
T = Trace of Precipitation, MM = Missing Value Source: NWS Daily Summary

Daily Weather History Graph

Daily Weather History Graph

Search for Another Location

Airport or City:

Trip Planner

Search our weather history database for the weather conditions in past years. The results will help you decide how hot, cold, wet, or windy it might be!

Date:

Astronomy

Nov. 22, 2012 Rise Set
Actual Time 6:47 AM EST 5:27 PM EST
Civil Twilight 6:22 AM EST 5:52 PM EST
Nautical Twilight 5:54 AM EST 6:20 PM EST
Astronomical Twilight 5:26 AM EST 6:48 PM EST
Moon 1:48 PM EST 1:32 AM EST
Length of Visible Light 11h 29m
Length of Day
10h 39m
Waxing Gibbous, 71% of the Moon is Illuminated
Nov 22
Waxing Gibbous
Nov 28
Full
Dec 6
Last Quarter
Dec 13
New
Dec 20
First Quarter

Hourly Weather History & Observations

Time (EST) Temp. Dew Point Humidity Pressure Visibility Wind Dir Wind Speed Gust Speed Precip Events Conditions
12:53 AM 57.9 °F 48.0 °F 70% 30.04 in 10.0 mi NW 9.2 mph - N/A   Clear
1:53 AM 57.0 °F 48.9 °F 74% 30.03 in 10.0 mi NW 10.4 mph - N/A   Clear
2:53 AM 55.9 °F 48.9 °F 77% 30.02 in 10.0 mi NW 8.1 mph - N/A   Clear
3:53 AM 55.9 °F 48.9 °F 77% 30.02 in 10.0 mi NW 8.1 mph - N/A   Clear
4:53 AM 55.0 °F 48.9 °F 80% 30.02 in 10.0 mi NW 8.1 mph - N/A   Clear
5:53 AM 55.0 °F 48.0 °F 77% 30.03 in 10.0 mi NW 9.2 mph - N/A   Clear
6:53 AM 55.0 °F 48.0 °F 77% 30.04 in 10.0 mi NW 10.4 mph 19.6 mph N/A   Clear
7:53 AM 57.9 °F 48.9 °F 72% 30.06 in 10.0 mi NW 12.7 mph 17.3 mph N/A   Clear
8:53 AM 62.1 °F 50.0 °F 65% 30.07 in 10.0 mi NW 16.1 mph 20.7 mph N/A   Clear
9:53 AM 66.9 °F 51.1 °F 57% 30.09 in 10.0 mi NW 11.5 mph 21.9 mph N/A   Clear
10:53 AM 71.1 °F 51.1 °F 49% 30.09 in 10.0 mi North 11.5 mph 21.9 mph N/A   Clear
11:53 AM 71.1 °F 50.0 °F 47% 30.08 in 10.0 mi NNW 15.0 mph 26.5 mph N/A   Clear
12:53 PM 71.1 °F 52.0 °F 51% 30.06 in 10.0 mi North 12.7 mph 21.9 mph N/A   Clear
1:53 PM 70.0 °F 51.1 °F 51% 30.06 in 10.0 mi North 10.4 mph 25.3 mph N/A   Clear
2:53 PM 70.0 °F 50.0 °F 49% 30.06 in 10.0 mi North 11.5 mph 23.0 mph N/A   Clear
3:53 PM 68.0 °F 48.9 °F 50% 30.07 in 10.0 mi NNW 15.0 mph 24.2 mph N/A   Clear
4:53 PM 64.9 °F 48.0 °F 54% 30.09 in 10.0 mi North 10.4 mph 21.9 mph N/A   Clear
5:53 PM 62.1 °F 48.0 °F 60% 30.09 in 10.0 mi NNW 9.2 mph - N/A   Clear
6:53 PM 60.1 °F 48.0 °F 64% 30.10 in 10.0 mi NNW 8.1 mph - N/A   Clear
7:53 PM 57.9 °F 46.9 °F 67% 30.13 in 10.0 mi NW 10.4 mph - N/A   Clear
8:53 PM 55.9 °F 46.0 °F 69% 30.14 in 10.0 mi NW 8.1 mph - N/A   Clear
9:53 PM 55.9 °F 46.0 °F 69% 30.14 in 10.0 mi NW 10.4 mph - N/A   Clear
10:53 PM 55.0 °F 46.0 °F 72% 30.14 in 10.0 mi NW 9.2 mph - N/A   Clear
11:53 PM 55.0 °F 46.0 °F 72% 30.13 in 10.0 mi NW 9.2 mph - N/A   Clear